EW9204 Weather Reports


Display with metric or nautical units.
time (UTC)temp
F
wind
direction
speed
MPH
gust
MPH
rain 1hr
in
rain 24hr
in
rain mn
in
humidity
%
barometer
mb
20260902194546 65 171 1.0 4.0 0.16 0.26 0.26 94 1020.5
20260902194019 65 123 1.0 4.0 0.20 0.26 0.26 94 1020.9
20260902193517 65 117 2.0 6.0 0.24 0.26 0.26 94 1021.0
20260902193042 65 59 2.0 6.0 0.23 0.25 0.25 94 1021.1
20260902192519 65 44 1.0 5.0 0.22 0.24 0.24 94 1021.0
20260902192020 65 108 1.0 4.0 0.21 0.23 0.23 94 1021.0
20260902191537 65 334 1.0 5.0 0.21 0.23 0.23 94 1021.1
20260902191024 65 93 1.0 8.0 0.21 0.23 0.23 93 1021.1
20260902190521 65 61 2.0 8.0 0.21 0.23 0.23 93 1021.2
20260902190041 65 47 1.0 4.0 0.19 0.21 0.21 92 1021.5
20260902185519 66 140 1.0 6.0 0.16 0.18 0.18 92 1021.6
20260902185023 66 0 1.0 6.0 0.14 0.16 0.16 91 1022.0
20260902184539 66 51 1.0 8.0 0.07 0.09 0.09 90 1022.2
20260902184018 67 15 2.0 8.0 0.02 0.04 0.04 89 1022.1
20260902183520 67 9 2.0 4.0 0.00 0.02 0.02 88 1022.2
20260902183044 67 312 2.0 4.0 0.00 0.02 0.02 88 1021.6
20260902182517 67 325 1.0 4.0 0.00 0.02 0.02 88 1021.3
20260902182018 67 142 0.0 3.0 0.00 0.02 0.02 88 1021.1
20260902181543 67 341 1.0 7.0 0.00 0.02 0.02 88 1021.0
20260902181024 67 67 1.0 7.0 0.00 0.02 0.02 88 1021.0
20260902180526 67 193 0.0 8.0 0.00 0.02 0.02 87 1021.2
20260902180040 67 80 2.0 9.0 0.00 0.02 0.02 87 1021.3
20260902175519 67 100 3.0 10.0 0.00 0.02 0.02 87 1021.3
20260902175021 67 196 1.0 10.0 0.00 0.02 0.02 87 1021.5
20260902174548 68 74 4.0 10.0 0.00 0.02 0.02 86 1021.6
20260902174021 68 81 3.0 9.0 0.00 0.02 0.02 87 1021.5
20260902173520 68 55 2.0 11.0 0.00 0.02 0.02 88 1021.5
20260902173045 67 137 3.0 11.0 0.00 0.02 0.02 87 1021.3
20260902172525 67 111 4.0 11.0 0.00 0.02 0.02 87 1021.3
20260902172022 67 142 3.0 9.0 0.00 0.02 0.02 87 1021.5
20260902171548 67 121 2.0 9.0 0.00 0.02 0.02 88 1021.5
20260902171019 67 108 3.0 9.0 0.00 0.02 0.02 88 1021.6
20260902170521 67 0 2.0 9.0 0.00 0.02 0.02 88 1021.6
20260902170042 67 13 3.0 8.0 0.00 0.02 0.02 88 1021.8
20260902165520 67 64 1.0 6.0 0.00 0.04 0.02 88 1021.8
20260902165019 67 64 1.0 6.0 0.00 0.04 0.02 87 1021.9
20260902164546 67 111 2.0 4.0 0.00 0.04 0.02 88 1021.9
20260902164021 67 330 1.0 4.0 0.00 0.04 0.02 87 1022.0
20260902163521 67 103 1.0 4.0 0.00 0.04 0.02 87 1021.9
20260902163039 67 93 0.0 6.0 0.00 0.04 0.02 88 1022.0
20260902162521 67 70 1.0 6.0 0.00 0.04 0.02 87 1021.9
20260902162023 67 196 1.0 6.0 0.00 0.04 0.02 87 1021.8
20260902161543 67 111 1.0 8.0 0.00 0.04 0.02 87 1021.7
20260902161020 67 9 1.0 8.0 0.00 0.04 0.02 87 1021.8
20260902160522 67 0 3.0 7.0 0.00 0.04 0.02 87 1021.8
20260902160041 67 146 1.0 7.0 0.00 0.04 0.02 87 1021.9
20260902155521 67 279 1.0 7.0 0.00 0.14 0.02 87 1022.0
20260902155018 67 59 1.0 5.0 0.00 0.14 0.02 87 1021.8
20260902154538 67 319 2.0 6.0 0.00 0.14 0.02 88 1021.8
20260902154019 67 309 0.0 7.0 0.00 0.14 0.02 89 1021.8
20260902153521 67 76 2.0 7.0 0.00 0.14 0.02 88 1021.8
20260902153037 67 51 1.0 8.0 0.00 0.14 0.02 88 1022.0
20260902152518 67 146 1.0 8.0 0.00 0.14 0.02 88 1022.0
20260902152018 67 110 1.0 8.0 0.00 0.14 0.02 88 1021.9
20260902151539 67 165 2.0 8.0 0.00 0.14 0.02 87 1021.9
20260902151018 67 38 1.0 7.0 0.00 0.14 0.02 88 1022.2
20260902150520 67 57 3.0 7.0 0.00 0.14 0.02 88 1022.1
20260902150043 66 325 1.0 6.0 0.00 0.14 0.02 90 1022.0
20260902145518 66 101 2.0 6.0 0.00 0.19 0.02 89 1022.0
20260902145017 66 113 1.0 6.0 0.00 0.19 0.02 89 1022.0
20260902144540 66 9 1.0 8.0 0.00 0.19 0.02 90 1021.9
20260902144022 66 187 1.0 8.0 0.00 0.19 0.02 91 1021.8
20260902143523 66 238 3.0 13.0 0.00 0.19 0.02 90 1021.7
20260902143040 65 133 2.0 13.0 0.00 0.19 0.02 91 1021.8
20260902142523 65 22 4.0 12.0 0.00 0.19 0.02 91 1021.7
20260902142021 65 64 4.0 12.0 0.00 0.19 0.02 92 1021.6
20260902141541 64 178 1.0 4.0 0.00 0.19 0.02 92 1021.8
20260902141018 64 0 1.0 6.0 0.00 0.19 0.02 93 1021.9
20260902140521 64 295 1.0 6.0 0.00 0.19 0.02 93 1021.9
20260902140040 64 59 2.0 7.0 0.00 0.19 0.02 93 1022.0
20260902135518 63 76 2.0 7.0 0.00 0.19 0.02 93 1021.9
20260902135019 63 312 2.0 9.0 0.00 0.19 0.02 93 1021.7
20260902134539 63 93 3.0 9.0 0.00 0.19 0.02 94 1021.7
20260902134020 63 9 2.0 10.0 0.00 0.19 0.02 94 1021.6
20260902133526 63 0 2.0 10.0 0.00 0.19 0.02 94 1021.5
20260902133052 63 137 2.0 10.0 0.00 0.19 0.02 95 1021.4
20260902132518 62 24 2.0 11.0 0.00 0.19 0.02 95 1021.3
20260902132019 62 9 4.0 11.0 0.00 0.19 0.02 95 1021.2
20260902131537 62 321 2.0 7.0 0.00 0.19 0.02 95 1021.3
20260902131019 62 24 2.0 7.0 0.00 0.19 0.02 95 1021.1
20260902130519 62 59 2.0 7.0 0.00 0.19 0.02 96 1021.3
20260902130041 61 61 2.0 6.0 0.00 0.19 0.02 96 1021.2
20260902125517 61 41 2.0 6.0 0.00 0.19 0.02 96 1021.3
20260902125017 61 42 2.0 7.0 0.00 0.19 0.02 96 1021.5
20260902124539 61 93 2.0 9.0 0.00 0.19 0.02 96 1021.5
20260902124021 61 19 2.0 9.0 0.00 0.19 0.02 96 1021.4
20260902123521 61 49 2.0 8.0 0.00 0.19 0.02 96 1021.5
20260902123041 61 0 2.0 8.0 0.00 0.19 0.02 96 1021.3
20260902122523 61 13 2.0 6.0 0.00 0.19 0.02 96 1021.4
20260902122018 61 59 2.0 6.0 0.00 0.19 0.02 96 1021.3
20260902121542 61 93 2.0 6.0 0.00 0.19 0.02 96 1021.3
20260902121019 61 41 2.0 11.0 0.00 0.19 0.02 96 1021.1
20260902120519 61 134 2.0 11.0 0.00 0.19 0.02 96 1021.2
20260902120038 60 19 2.0 9.0 0.00 0.19 0.02 96 1021.2
20260902115521 61 34 2.0 9.0 0.00 0.19 0.02 96 1021.2
20260902115016 61 19 2.0 7.0 0.00 0.19 0.02 96 1021.2
20260902114540 61 26 2.0 7.0 0.00 0.19 0.02 96 1021.1
20260902114018 61 93 3.0 8.0 0.00 0.19 0.02 96 1021.1
20260902113516 60 316 2.0 10.0 0.00 0.19 0.02 96 1021.1
20260902113050 60 325 1.0 10.0 0.00 0.19 0.02 96 1021.2
20260902112516 60 42 3.0 8.0 0.00 0.19 0.02 96 1021.2
20260902112019 60 41 3.0 8.0 0.00 0.19 0.02 96 1021.1
20260902111538 60 48 2.0 7.0 0.00 0.19 0.02 96 1021.1
20260902111021 60 90 3.0 7.0 0.00 0.19 0.02 96 1021.1
20260902110519 60 26 2.0 7.0 0.00 0.19 0.02 96 1021.0
20260902110037 60 338 3.0 6.0 0.00 0.19 0.02 96 1021.1
20260902105516 61 26 2.0 7.0 0.00 0.19 0.02 96 1021.1
20260902105021 61 38 2.0 7.0 0.00 0.19 0.02 96 1021.0
20260902104551 61 313 1.0 8.0 0.00 0.19 0.02 96 1021.0
20260902104017 61 51 2.0 8.0 0.00 0.19 0.02 96 1020.9
20260902103519 61 57 2.0 10.0 0.00 0.19 0.02 96 1021.0
20260902103036 61 43 1.0 10.0 0.00 0.19 0.02 96 1020.8
20260902102517 61 24 3.0 10.0 0.00 0.19 0.02 96 1020.7
20260902102019 61 137 2.0 8.0 0.01 0.19 0.02 96 1020.8
20260902101540 61 79 2.0 8.0 0.01 0.19 0.02 96 1020.7
20260902101021 61 67 2.0 7.0 0.01 0.19 0.02 96 1020.7
20260902100518 61 36 3.0 7.0 0.01 0.19 0.02 96 1020.7
20260902100035 61 0 2.0 8.0 0.01 0.19 0.02 96 1020.6
20260902095516 61 83 2.0 8.0 0.01 0.19 0.02 96 1020.7
20260902095016 61 0 1.0 7.0 0.01 0.19 0.02 96 1020.6
20260902094537 61 32 2.0 6.0 0.01 0.19 0.02 96 1020.6
20260902094017 61 46 1.0 6.0 0.01 0.19 0.02 96 1020.6
20260902093519 61 51 1.0 5.0 0.01 0.19 0.02 96 1020.5
20260902093042 61 123 1.0 6.0 0.01 0.19 0.02 96 1020.5
20260902092518 62 41 2.0 6.0 0.01 0.19 0.02 96 1020.6
20260902092018 62 78 1.0 6.0 0.00 0.18 0.01 96 1020.6
20260902091538 62 0 2.0 6.0 0.00 0.18 0.01 96 1020.5
20260902091016 62 68 1.0 4.0 0.00 0.18 0.01 96 1020.6
20260902090519 62 93 1.0 6.0 0.00 0.18 0.01 96 1020.5
20260902090040 62 341 1.0 8.0 0.00 0.18 0.01 96 1020.5
20260902085518 62 71 2.0 8.0 0.00 0.19 0.01 96 1020.3
20260902085020 62 0 1.0 5.0 0.00 0.19 0.01 96 1020.3
20260902084541 62 51 1.0 8.0 0.00 0.19 0.01 96 1020.1
20260902084019 62 9 2.0 10.0 0.00 0.19 0.01 96 1020.1
20260902083520 62 93 1.0 10.0 0.00 0.19 0.01 96 1020.1
20260902083050 62 51 3.0 10.0 0.00 0.19 0.01 96 1020.0
20260902082521 62 88 1.0 9.0 0.00 0.19 0.01 96 1020.0
20260902082019 62 329 3.0 9.0 0.00 0.19 0.01 96 1020.0
20260902081541 62 338 3.0 9.0 0.00 0.19 0.01 96 1019.9
20260902081021 62 0 1.0 6.0 0.00 0.19 0.01 96 1019.8
20260902080520 62 9 2.0 10.0 0.00 0.19 0.01 96 1019.7
20260902080042 62 334 4.0 10.0 0.00 0.19 0.01 96 1019.7
20260902075517 62 34 2.0 7.0 0.00 0.19 0.01 96 1019.6
20260902075019 62 45 2.0 6.0 0.00 0.19 0.01 96 1019.7
20260902074542 62 265 1.0 5.0 0.00 0.19 0.01 96 1019.5
20260902074018 62 9 2.0 5.0 0.00 0.19 0.01 96 1019.5
20260902073518 62 93 2.0 5.0 0.00 0.19 0.01 96 1019.6
20260902073041 62 309 2.0 5.0 0.00 0.19 0.01 96 1019.5
20260902072519 62 9 2.0 5.0 0.00 0.19 0.01 96 1019.5
20260902072018 62 111 2.0 5.0 0.00 0.19 0.01 96 1019.5
20260902071539 62 51 1.0 8.0 0.00 0.19 0.01 96 1019.5
20260902071016 62 29 2.0 8.0 0.00 0.19 0.01 96 1019.3
20260902070521 62 346 1.0 7.0 0.00 0.19 0.01 96 1019.4
20260902070042 62 51 2.0 7.0 0.00 0.19 0.01 96 1019.3
20260902065527 62 51 1.0 4.0 0.00 0.36 0.01 96 1019.5
20260902065022 62 9 1.0 6.0 0.00 0.36 0.01 96 1019.5
20260902064543 62 41 1.0 6.0 0.00 0.36 0.01 96 1019.5
20260902064019 62 0 2.0 7.0 0.00 0.36 0.01 96 1019.6
20260902063519 62 49 2.0 7.0 0.00 0.36 0.01 96 1019.6
20260902063042 62 0 2.0 6.0 0.00 0.36 0.01 96 1019.7
20260902062518 62 309 2.0 7.0 0.00 0.36 0.01 96 1019.6
20260902062016 62 9 2.0 7.0 0.01 0.36 0.01 96 1019.6
20260902061546 62 0 1.0 5.0 0.01 0.36 0.01 96 1019.7
20260902061021 62 0 2.0 6.0 0.01 0.36 0.01 96 1019.6
20260902060521 62 61 1.0 6.0 0.01 0.36 0.01 96 1019.7
20260902060039 62 20 2.0 6.0 0.01 0.36 0.01 96 1019.8
20260902055521 62 19 1.0 9.0 0.01 0.85 0.01 96 1019.9
20260902055020 62 341 2.0 9.0 0.01 0.85 0.01 96 1019.8
20260902054539 62 330 3.0 6.0 0.01 0.85 0.01 95 1019.9
20260902054028 62 34 2.0 5.0 0.01 0.85 0.01 96 1019.8
20260902053528 62 41 2.0 8.0 0.01 0.85 0.01 96 1019.7
20260902053038 62 38 2.0 8.0 0.01 0.85 0.01 96 1019.8
20260902052521 62 47 2.0 5.0 0.01 0.85 0.01 96 1019.7
20260902052017 62 0 2.0 5.0 0.00 0.84 0.00 96 1019.6
20260902051539 62 47 2.0 5.0 0.00 0.84 0.00 95 1019.8
20260902051016 62 0 2.0 6.0 0.00 0.84 0.00 95 1019.8
20260902050522 62 9 1.0 6.0 0.00 0.84 0.00 95 1019.8
20260902050038 62 44 2.0 5.0 0.00 0.84 0.00 95 1019.8
20260902045520 62 59 1.0 5.0 0.00 1.15 0.00 95 1019.6
20260902045022 62 329 1.0 6.0 0.00 1.15 0.00 95 1019.6
20260902044548 62 30 2.0 6.0 0.00 1.15 0.00 95 1019.6
20260902044025 62 334 2.0 5.0 0.00 1.15 0.00 95 1019.5
20260902043519 62 319 2.0 6.0 0.00 1.15 0.00 95 1019.6
20260902043052 62 291 1.0 6.0 0.00 1.15 0.00 95 1019.6
20260902042519 62 39 2.0 5.0 0.00 1.15 0.00 95 1019.6
20260902042022 62 41 2.0 8.0 0.00 1.15 0.00 95 1019.6
20260902041542 62 51 2.0 8.0 0.00 1.15 0.00 95 1019.5
20260902041021 62 13 2.0 8.0 0.00 1.15 0.00 95 1019.3
20260902040521 62 15 2.0 6.0 0.00 1.15 0.00 95 1019.3
20260902040041 62 32 2.0 9.0 0.00 1.15 0.00 95 1019.2
20260902035521 62 78 2.0 9.0 0.00 1.15 1.15 95 1019.2
20260902035020 62 9 4.0 9.0 0.00 1.15 1.15 95 1019.1
20260902034539 62 123 2.0 10.0 0.00 1.15 1.15 95 1019.1
20260902034020 63 64 3.0 10.0 0.00 1.15 1.15 95 1019.1
20260902033519 63 101 3.0 10.0 0.00 1.15 1.15 95 1019.0
20260902033043 63 9 2.0 10.0 0.00 1.15 1.15 95 1018.9
20260902032518 63 51 2.0 12.0 0.00 1.15 1.15 95 1018.8
20260902032021 63 17 2.0 12.0 0.00 1.15 1.15 94 1018.7
20260902031541 63 86 3.0 11.0 0.00 1.15 1.15 94 1018.5
20260902031022 63 32 3.0 9.0 0.00 1.15 1.15 94 1018.5
20260902030521 63 78 1.0 7.0 0.00 1.15 1.15 94 1018.6
20260902030039 63 85 2.0 10.0 0.00 1.15 1.15 94 1018.5
20260902025521 63 63 3.0 10.0 0.00 1.15 1.15 94 1018.6
20260902025020 63 54 3.0 12.0 0.00 1.15 1.15 94 1018.6
20260902024539 63 65 3.0 12.0 0.00 1.15 1.15 94 1018.6
20260902024020 63 0 3.0 10.0 0.00 1.15 1.15 94 1018.6
20260902023517 63 144 2.0 10.0 0.00 1.15 1.15 94 1018.6
20260902023046 63 90 4.0 11.0 0.00 1.15 1.15 94 1018.5
20260902022518 63 156 3.0 11.0 0.00 1.15 1.15 94 1018.6
20260902022024 63 273 1.0 9.0 0.00 1.15 1.15 94 1018.4
20260902021539 63 13 3.0 9.0 0.00 1.15 1.15 93 1018.3
20260902021020 64 137 2.0 9.0 0.00 1.15 1.15 93 1018.3
20260902020521 64 93 2.0 9.0 0.00 1.15 1.15 93 1018.3
20260902020041 64 34 3.0 9.0 0.00 1.15 1.15 93 1018.3
20260902015519 64 51 3.0 10.0 0.00 1.15 1.15 93 1018.3
20260902015019 64 34 2.0 10.0 0.00 1.15 1.15 93 1018.1
20260902014539 64 61 3.0 11.0 0.00 1.15 1.15 93 1018.1
20260902014019 64 9 2.0 11.0 0.00 1.15 1.15 93 1017.9
20260902013522 64 205 2.0 11.0 0.00 1.15 1.15 93 1017.9
20260902013041 64 9 1.0 10.0 0.00 1.15 1.15 93 1017.9
20260902012519 64 99 3.0 11.0 0.00 1.15 1.15 93 1017.9
20260902012021 64 133 3.0 12.0 0.00 1.15 1.15 93 1017.7
20260902011551 64 64 4.0 13.0 0.00 1.15 1.15 92 1017.9
20260902011021 65 336 3.0 13.0 0.00 1.15 1.15 92 1017.6
20260902010522 65 66 5.0 13.0 0.00 1.15 1.15 92 1017.4
20260902010034 65 123 5.0 10.0 0.00 1.15 1.15 92 1017.2
20260902005521 65 76 2.0 10.0 0.00 1.15 1.15 92 1017.4
20260902005024 65 319 2.0 10.0 0.00 1.15 1.15 92 1017.4
20260902004542 65 74 3.0 10.0 0.00 1.15 1.15 92 1017.5
20260902004022 65 328 4.0 10.0 0.00 1.15 1.15 92 1017.8
20260902003519 65 115 1.0 10.0 0.00 1.15 1.15 93 1017.5
20260902003044 66 59 3.0 11.0 0.00 1.15 1.15 92 1017.4
20260902002520 66 97 4.0 12.0 0.00 1.15 1.15 92 1017.3
20260902002016 66 26 3.0 12.0 0.00 1.15 1.15 92 1017.0
20260902001540 66 45 5.0 12.0 0.00 1.15 1.15 92 1016.7
20260902001018 66 117 4.0 11.0 0.00 1.15 1.15 93 1016.6
20260902000519 67 51 3.0 11.0 0.00 1.15 1.15 93 1016.9
20260902000042 67 32 2.0 11.0 0.00 1.15 1.15 93 1016.9
20260901235521 67 78 3.0 12.0 0.00 1.15 1.15 93 1016.6
20260901235021 67 309 4.0 12.0 0.00 1.15 1.15 93 1016.7
20260901234545 67 325 2.0 8.0 0.00 1.15 1.15 93 1016.9
20260901234019 68 41 2.0 9.0 0.00 1.15 1.15 94 1017.0
20260901233523 68 67 3.0 9.0 0.00 1.15 1.15 93 1016.8
20260901233038 68 59 2.0 10.0 0.00 1.15 1.15 93 1016.8
20260901232517 68 0 2.0 10.0 0.00 1.15 1.15 94 1016.7
20260901232017 69 61 3.0 10.0 0.00 1.15 1.15 94 1016.5
20260901231541 69 76 2.0 12.0 0.00 1.15 1.15 94 1016.3
20260901231018 69 134 4.0 12.0 0.00 1.15 1.15 94 1016.2
20260901230518 70 74 3.0 11.0 0.00 1.15 1.15 94 1016.4
20260901230039 70 100 5.0 10.0 0.00 1.15 1.15 94 1016.3
20260901225521 70 69 2.0 10.0 0.00 1.15 1.15 94 1016.2
20260901225020 70 329 1.0 11.0 0.00 1.15 1.15 94 1016.2
20260901224536 71 93 2.0 11.0 0.00 1.15 1.15 93 1015.8
20260901224021 71 108 5.0 11.0 0.00 1.15 1.15 93 1015.7
20260901223519 72 360 3.0 11.0 0.00 1.15 1.15 93 1015.8
20260901223034 73 43 1.0 8.0 0.00 1.15 1.15 93 1015.9
20260901222517 73 59 2.0 8.0 0.00 1.15 1.15 93 1015.8
20260901222016 74 153 2.0 8.0 0.00 1.15 1.15 93 1015.8
20260901221605 74 57 1.0 8.0 0.00 1.15 1.15 93 1015.6
20260901221016 74 98 2.0 8.0 0.00 1.15 1.15 93 1015.7
20260901220524 74 148 3.0 8.0 0.00 1.15 1.15 93 1015.8
20260901220049 75 86 2.0 6.0 0.00 1.15 1.15 93 1015.8
20260901215519 75 26 1.0 8.0 0.00 1.15 1.15 93 1015.7
20260901215021 75 119 1.0 8.0 0.00 1.15 1.15 92 1015.7
20260901214534 75 87 1.0 5.0 0.00 1.15 1.15 92 1015.8
20260901214019 75 212 1.0 5.0 0.00 1.15 1.15 92 1015.8
20260901213518 75 38 1.0 5.0 0.00 1.15 1.15 92 1015.8
20260901213051 76 26 1.0 6.0 0.00 1.15 1.15 92 1015.9
20260901212516 76 59 1.0 6.0 0.00 1.15 1.15 92 1015.9
20260901212017 76 178 0.0 6.0 0.00 1.15 1.15 92 1015.8
20260901211536 76 146 2.0 6.0 0.00 1.15 1.15 91 1015.8
20260901211018 76 45 2.0 6.0 0.00 1.15 1.15 91 1015.8
20260901210521 76 9 2.0 6.0 0.00 1.15 1.15 91 1015.6
20260901210038 76 67 1.0 6.0 0.00 1.15 1.15 90 1015.7
20260901205519 77 137 1.0 6.0 0.00 1.15 1.15 90 1015.7
20260901205024 77 93 1.0 5.0 0.00 1.15 1.15 90 1015.7
20260901204535 77 93 1.0 5.0 0.00 1.15 1.15 89 1015.8
20260901204018 77 93 1.0 5.0 0.00 1.15 1.15 88 1015.7
20260901203524 77 0 0.0 4.0 0.00 1.15 1.15 87 1015.7
20260901203041 77 205 1.0 4.0 0.00 1.15 1.15 86 1015.6
20260901202519 77 212 1.0 4.0 0.00 1.15 1.15 87 1015.6
20260901202019 77 146 0.0 5.0 0.00 1.15 1.15 87 1015.7
20260901201542 77 162 2.0 5.0 0.00 1.15 1.15 87 1015.7
20260901201021 77 144 1.0 4.0 0.00 1.15 1.15 87 1015.7
20260901200520 77 168 1.0 3.0 0.00 1.15 1.15 87 1015.8
20260901200105 78 0 1.0 3.0 0.00 1.15 1.15 86 1015.7
20260901195519 78 149 0.0 4.0 0.00 1.15 1.15 87 1015.8
20260901195018 78 0 0.0 4.0 0.00 1.15 1.15 88 1015.8